Location: Ferintosh
(52.7647°N, 112.9692°W)
Time: 23:10:53
(UTC+00:00)

A-11 Canister half - Pass Details

Date: 22 May 2024
Orbit: 1524 x 1683 km, 47.3° (Epoch: 20 June)

Event Time Altitude Azimuth Distance (km) Brightness Sun altitude
Rises 04:58:23 0° 223° (SW) 4,683 11.4 -9.8°
Reaches altitude 10° 05:01:35 10° 217° (SW) 3,715 10.8 -10.1°
Maximum altitude 05:10:12 43° 150° (SSE) 2,099 9.3 -10.8°
Drops below altitude 10° 05:19:05 10° 84° (E) 3,832 10.8 -11.5°
Sets 05:22:26 0° 78° (ENE) 4,842 11.4 -11.8°
